sat.trackr.live / text

‹ back to catalog

STARLINK-32590

NORAD 63047 · 2025-034U

PAYLOAD ACTIVE UNKNOWN

§ Identity

Operator
Country
US
Launch date
2025-02-18
Launch site
AFETR
Launch vehicle
Mass (kg)
RCS (m²)

Purposes: comms

External: N2YO · Heavens-Above · Gunter

§ Orbital elements

Epoch: 2026-09-21T21:36:32.752512Z

Period
94.01 min
Inclination
53.1608°
Eccentricity
0.0001104
Mean motion
15.31719068 rev/d
Perigee alt
469.9 km
Apogee alt
471.4 km
Semi-major
6,848.8 km
B*
5.3710e-4
RAAN
66.3105°
Arg perigee
102.7830°
Mean anomaly
257.3295°
Rev number
8,912

§ Raw data

STARLINK-325901 63047U 25034U   26264.90037908  .00016348  00000+0  53710-3 0  99902 63047  53.1608  66.3105 0001104 102.7830 257.3295 15.31719068 89127

JSON: /api/v1/satellites/63047 · /tle

For live sub-satellite position, see the globe view (requires WebGL).

§ Visibility from observer

Set your observer location to see the next 7 days of passes ≥ 10°. The values pass through the URL so the page stays shareable.

No JS? Fill the form by hand. The geolocation button needs JavaScript.